Theta_e
324 316 312 315 319 318 312 305 296 296 297 291 286 288 291 296 297 298 298 300 299 303 306 309 311 313 308 308 314 316 317 310 309 299 297 312 331 336 339 339 340 340 340 339 339 338 337 342 343 344 342 344 347 348 348 347 347 347 348 347 347 347 347 347 345 344 343 344 344 344 344 344 342 341 342 341 341 340 342 341 341 341 341 340 340 341 340 341 342 341 341 340 342 344 345 344 344
322 316 312 316 318 311 305 302 293 291 287 284 289 289 293 294 296 295 296 299 300 305 306 315 317 319 319 319 319 317 317 320 319 315 325 331 335 337 339 340 340 339 339 339 337 336 335 340 344 343 342 348 348 348 347 347 346 346 347 347 347 346 347 346 345 343 342 344 343 341 342 343 342 340 339 339 337 342 341 341 340 339 341 340 341 341 340 340 340 340 339 340 342 344 344 343 343
325 314 313 312 310 309 304 301 295 286 289 285 285 288 294 294 294 295 300 303 305 306 305 310 313 314 314 316 314 312 308 324 325 326 326 333 330 333 339 340 340 340 339 338 337 335 335 339 342 342 341 345 347 347 347 347 347 347 346 346 346 346 346 345 344 343 342 341 339 340 345 344 343 342 342 341 340 339 340 340 340 341 341 340 340 340 340 340 340 339 338 339 341 343 343 343 344
318 316 314 307 305 303 297 294 289 289 287 283 287 292 296 295 296 300 303 305 305 302 303 305 304 307 314 313 315 321 317 319 325 326 325 329 331 336 339 339 340 341 339 338 337 335 336 340 342 343 343 344 345 345 345 346 347 347 346 346 346 345 345 344 342 341 341 340 340 340 340 340 340 340 340 340 338 338 339 339 339 339 340 340 340 341 341 340 340 339 339 338 342 343 342 343 344
314 317 313 306 304 302 299 294 292 286 286 285 286 289 297 298 299 301 303 302 301 304 305 303 306 312 316 315 315 309 313 323 325 327 326 330 337 338 338 339 340 339 338 338 337 335 336 341 342 341 341 343 344 343 343 345 346 346 346 346 345 344 344 344 342 340 339 339 342 341 339 339 340 340 340 339 339 338 340 341 340 338 338 339 339 339 340 340 339 339 338 339 342 342 342 342 342
313 312 313 308 304 305 298 294 288 289 287 288 289 296 298 300 301 301 301 302 302 302 303 303 306 308 315 316 317 315 322 318 324 326 328 331 337 339 338 339 339 338 338 337 335 335 336 339 342 341 342 342 342 344 343 344 347 347 347 346 345 344 343 343 341 339 339 340 342 341 339 340 340 341 340 341 341 340 340 341 340 340 340 340 340 341 341 340 340 340 338 338 341 343 342 341 342
312 308 306 302 302 301 293 289 287 288 292 292 296 298 300 300 301 301 300 301 303 305 304 310 316 315 313 316 320 323 325 324 326 327 331 335 338 338 339 339 338 337 337 336 335 335 335 340 343 343 344 343 343 342 342 343 344 346 346 345 344 343 343 342 341 341 339 338 338 338 340 342 343 343 343 341 338 337 336 337 338 339 339 340 341 341 341 340 341 340 339 340 340 342 341 340 340
313 306 305 296 293 294 293 288 290 287 293 295 298 301 299 301 300 302 300 299 301 301 305 309 305 305 306 316 313 322 327 328 328 333 336 337 338 338 339 338 337 336 336 335 334 334 341 339 342 342 342 342 342 342 342 343 344 346 346 345 343 343 342 342 340 339 339 338 338 340 342 342 343 343 342 340 339 338 338 337 338 338 338 338 339 338 337 338 339 341 340 340 341 341 340 340 339
308 306 302 297 294 292 287 290 291 291 293 297 299 302 305 302 299 299 297 299 299 300 301 304 309 307 308 315 313 320 324 330 334 335 337 337 337 338 339 337 336 335 336 335 334 333 333 339 341 342 342 343 343 343 344 344 344 346 346 344 343 342 341 341 339 338 338 338 337 337 343 343 343 343 342 340 338 337 337 338 338 339 339 338 338 338 338 338 339 339 339 339 340 340 339 339 338
305 303 296 294 292 292 287 286 289 291 295 297 299 301 301 299 298 299 298 299 301 301 302 303 304 306 312 315 316 320 322 331 334 334 336 337 337 338 337 337 337 335 335 335 335 335 333 341 337 339 340 342 344 344 345 344 343 343 345 343 342 341 341 340 338 338 338 339 338 337 339 341 339 339 340 340 338 337 337 338 338 338 338 338 338 338 338 338 338 338 338 339 339 339 338 337 336
298 299 300 296 289 288 289 286 286 293 295 296 299 301 301 297 298 298 299 298 300 300 302 313 312 312 314 313 312 318 326 331 332 331 334 336 337 337 336 337 337 336 335 335 334 335 334 335 339 337 339 339 342 343 343 343 342 342 344 344 342 341 340 340 338 337 338 338 338 337 336 339 342 342 339 339 338 338 338 338 338 339 338 338 338 338 338 338 338 338 338 338 338 338 337 336 335
298 294 298 290 288 288 288 288 292 291 294 295 297 299 297 298 298 298 299 300 300 300 303 307 310 314 311 308 313 322 327 328 331 332 332 334 337 337 337 337 337 337 336 335 334 335 334 334 335 339 335 336 338 340 341 341 342 342 343 343 342 341 340 339 338 338 339 341 339 338 339 341 342 342 341 338 338 337 337 336 336 337 337 337 337 338 337 337 337 336 336 337 337 336 336 335 335
298 297 291 291 288 290 289 289 290 292 293 294 296 299 297 299 300 300 299 300 299 300 301 301 317 313 307 308 314 321 325 327 330 330 330 335 337 337 337 337 337 337 336 335 335 334 333 332 335 334 333 332 332 334 336 338 340 342 342 342 342 341 340 339 338 338 340 341 343 343 342 341 340 341 342 340 339 338 337 338 338 337 337 337 337 337 338 337 337 336 336 337 337 336 335 335 335
301 297 295 291 290 290 288 288 289 290 290 294 294 299 299 298 298 301 301 299 298 298 301 310 315 317 312 315 317 317 323 327 329 329 333 336 337 337 336 336 336 337 338 336 336 337 335 334 334 333 333 333 331 332 332 337 339 341 341 341 341 341 340 340 340 340 340 341 340 340 340 340 340 341 341 341 341 339 338 337 338 336 336 336 335 335 336 336 336 336 336 336 336 335 335 335 334
303 301 294 291 291 289 290 290 291 288 290 291 298 298 298 301 297 299 302 298 298 301 304 308 318 310 307 313 312 319 324 328 328 329 333 336 336 336 335 335 336 336 337 337 337 337 337 338 335 333 333 334 333 332 329 333 333 337 339 339 340 341 341 339 338 336 337 338 337 335 334 333 333 335 336 337 337 337 335 333 337 336 335 335 335 335 336 336 336 336 335 335 335 334 334 334 333
303 298 294 294 289 290 290 290 290 288 290 294 298 297 298 299 298 299 300 300 300 303 303 305 309 304 309 314 313 323 326 328 327 329 333 334 334 334 334 334 335 336 335 336 337 337 338 338 336 335 334 334 331 329 329 328 331 331 335 336 337 338 337 336 334 332 330 330 330 329 327 325 325 326 327 330 333 336 333 330 333 335 335 335 335 335 335 335 335 335 335 335 334 334 333 332 332
302 299 294 287 290 289 290 291 290 288 291 294 296 298 296 297 299 299 299 301 303 306 313 315 310 318 317 315 316 326 327 326 325 329 330 331 333 332 333 334 334 334 335 336 336 337 338 337 336 335 334 333 331 332 331 331 330 328 329 330 332 334 334 333 331 325 323 322 323 321 322 323 322 322 323 324 324 327 325 327 332 336 335 335 335 335 335 334 335 335 335 334 333 333 329 328 326
302 296 290 290 289 291 292 292 293 292 296 296 296 296 298 295 298 300 302 306 307 308 311 311 319 318 319 320 325 327 327 325 326 328 328 329 331 330 330 332 333 332 333 335 335 336 336 337 336 335 333 332 332 333 333 331 329 328 328 328 327 329 327 325 325 324 327 320 320 321 320 323 322 319 320 328 323 324 326 325 330 335 336 334 335 334 334 334 334 334 334 333 332 330 324 312 314
298 291 292 290 289 293 296 293 294 297 296 298 297 295 298 297 297 298 298 299 302 304 306 311 314 317 320 322 325 325 325 324 324 327 326 326 328 328 329 331 332 333 333 334 335 336 335 335 336 334 333 333 332 333 333 331 330 328 326 326 327 326 328 326 325 325 322 322 320 320 320 319 320 321 319 322 322 322 325 325 329 331 333 332 334 334 334 334 334 334 334 332 331 327 314 312 313
296 294 289 289 294 294 294 295 297 298 299 297 295 295 296 298 297 298 297 297 299 303 308 308 311 314 317 320 323 324 324 323 324 324 325 326 327 328 328 329 330 332 333 335 335 337 335 334 334 334 333 333 333 333 333 331 331 329 327 326 326 327 326 326 324 324 324 323 323 323 321 320 320 319 326 327 327 321 322 323 326 327 329 328 330 330 331 333 333 333 331 331 326 320 314 314 315
294 295 290 293 295 295 296 295 296 296 300 298 296 294 296 296 297 297 295 296 295 297 309 312 314 316 317 320 322 322 323 322 321 322 323 324 325 328 329 330 330 331 333 334 335 336 335 334 334 334 334 334 333 333 332 332 331 329 328 326 325 326 326 326 326 325 324 324 323 324 322 320 321 319 320 320 319 320 319 319 320 321 320 320 323 321 322 321 319 317 316 317 312 315 315 316 315
298 294 294 295 294 295 294 294 295 297 298 298 295 296 296 297 298 294 297 294 292 296 302 310 318 319 319 319 321 322 321 321 321 321 322 323 323 324 325 324 325 327 329 330 332 335 335 335 333 334 334 333 334 334 333 332 331 330 329 328 326 325 326 326 326 326 325 326 324 324 322 322 321 321 318 317 317 319 320 318 319 318 316 317 318 319 317 316 314 313 312 312 312 312 314 313 312
295 294 294 294 294 296 297 296 296 295 297 296 296 297 297 296 296 294 297 295 293 294 301 308 320 321 322 323 322 321 320 321 321 321 322 321 322 323 325 326 326 327 327 329 331 334 335 335 333 334 334 334 334 334 332 331 332 330 330 329 327 326 325 326 326 325 326 325 324 322 321 320 320 320 320 318 318 318 319 317 317 317 319 317 318 318 318 316 314 314 313 314 313 312 312 311 311
297 294 293 296 295 297 295 295 294 294 297 297 296 296 297 294 294 293 294 293 293 295 297 312 321 322 322 321 321 321 321 321 322 323 323 323 323 324 325 325 327 326 326 329 329 332 333 335 335 334 334 334 334 334 332 330 331 330 329 328 328 327 325 325 326 326 326 326 324 323 321 322 321 319 320 318 318 317 318 319 318 316 316 319 318 318 319 314 313 314 313 312 312 312 312 311 311
295 294 295 296 297 295 295 292 293 294 296 294 295 297 296 294 293 293 294 295 297 298 300 318 321 321 321 321 320 320 321 321 321 322 321 321 321 322 320 323 324 325 326 327 328 329 332 334 334 334 334 334 334 334 331 330 331 330 328 328 328 326 326 325 326 327 325 326 325 323 321 320 319 319 318 319 317 319 319 319 317 318 318 318 318 317 318 317 315 314 315 315 311 311 310 311 312
294 296 295 296 296 295 294 295 294 294 296 295 296 294 295 293 296 294 295 296 296 304 308 319 320 319 319 320 320 320 320 320 321 321 322 322 321 321 321 321 323 323 326 328 328 328 330 333 333 334 334 335 335 334 332 330 330 329 329 328 328 325 327 325 325 325 326 326 325 323 323 321 320 319 318 316 317 319 319 319 318 318 318 318 316 318 316 316 315 312 313 313 312 311 311 314 311
294 295 295 296 296 295 295 296 295 294 296 294 295 293 295 295 295 293 295 295 302 307 311 318 318 318 319 319 320 320 320 320 321 323 322 321 321 322 322 321 322 324 325 326 327 328 328 331 332 334 334 333 334 333 332 331 330 329 329 329 328 326 328 325 324 326 325 326 326 324 323 322 321 320 319 319 317 318 319 319 319 318 317 317 317 318 315 316 316 316 315 314 313 313 314 312 311
295 294 293 294 295 295 295 295 294 295 297 294 295 294 294 295 295 290 294 293 306 307 310 315 317 317 318 318 319 319 320 321 322 321 321 320 322 322 322 323 322 324 324 326 327 328 328 330 332 332 334 333 332 333 331 332 331 330 329 329 328 327 327 326 325 325 323 326 325 324 323 322 321 320 320 320 319 318 317 318 318 317 317 316 317 317 315 315 315 315 314 313 312 312 314 313 310
294 294 292 293 294 295 295 294 295 296 297 295 294 294 293 293 292 294 291 296 304 308 309 313 314 315 317 317 318 318 319 320 320 321 322 323 324 324 323 324 324 324 325 327 328 327 328 329 331 332 333 332 333 332 331 332 331 330 328 328 328 328 327 327 326 325 325 325 325 325 324 323 321 321 319 320 319 318 317 317 318 317 318 318 316 316 315 313 312 312 313 311 311 310 310 313 310
295 293 292 291 292 291 293 294 293 295 296 294 295 286 287 291 295 294 294 299 300 305 307 309 311 312 314 315 316 317 318 317 319 321 323 324 324 324 324 325 324 325 325 326 327 326 328 330 332 332 332 332 332 333 331 331 331 331 329 329 328 328 327 326 326 326 324 324 325 325 325 324 322 321 320 317 318 318 317 317 317 317 316 315 315 314 314 313 314 311 313 311 313 310 311 312 309
290 290 293 286 286 285 292 294 293 294 295 294 295 288 286 292 295 294 295 298 301 302 304 306 307 309 310 312 314 315 317 318 320 322 323 324 325 325 324 325 325 325 325 325 326 327 327 330 331 332 330 332 330 332 330 331 330 330 329 329 328 328 327 326 324 325 324 325 326 325 325 325 324 323 321 321 317 315 314 315 315 318 319 316 316 315 315 314 314 316 312 312 311 310 309 310 308
290 289 285 287 287 285 289 293 293 294 294 294 293 287 288 292 293 290 294 295 299 299 300 302 301 303 305 308 311 313 315 318 319 321 322 324 325 325 324 325 325 325 325 326 326 327 327 329 329 331 329 330 331 331 331 331 330 330 330 327 329 327 327 327 326 326 326 324 326 326 327 327 327 326 325 323 322 318 317 316 317 320 321 320 319 317 315 317 316 317 316 315 314 313 311 312 308
285 287 281 285 285 286 288 293 292 294 293 295 292 287 287 292 291 291 293 295 294 296 296 298 298 299 299 302 307 310 311 313 316 319 321 323 324 325 325 325 325 326 326 326 326 326 326 328 328 329 328 330 330 330 330 330 330 329 329 329 329 328 327 327 326 326 327 327 325 327 328 328 328 328 328 327 326 322 320 321 321 321 321 321 320 319 318 319 318 317 315 314 315 315 313 311 309
281 283 283 284 286 284 284 288 291 293 293 292 292 289 288 289 289 293 293 294 293 293 294 296 297 298 298 298 301 305 308 310 313 317 320 322 324 325 326 323 325 326 326 326 327 327 327 327 328 328 328 330 330 330 330 330 330 329 329 329 328 329 329 329 328 326 327 327 327 328 328 328 327 327 327 326 327 326 324 324 325 324 323 322 321 320 318 318 317 316 316 315 315 314 312 310 310
280 284 285 286 286 286 287 287 289 293 292 291 290 289 291 292 289 291 293 292 293 294 294 294 295 296 296 296 298 302 306 307 311 315 319 321 322 323 325 325 325 325 326 326 327 327 327 327 327 326 327 329 329 329 329 329 329 329 329 329 330 331 331 332 331 329 328 327 328 330 329 328 327 329 328 327 326 325 325 324 323 323 324 323 322 320 318 318 317 317 316 317 313 312 312 311 311
286 285 284 284 285 286 286 289 291 292 291 289 289 290 292 293 292 290 291 292 292 294 292 291 292 294 296 296 298 301 304 306 310 313 316 319 321 322 324 325 325 325 326 325 325 327 327 326 326 326 326 329 329 329 328 328 328 327 327 325 328 330 331 329 330 330 328 327 327 327 325 326 325 325 327 327 327 326 325 324 322 320 318 319 321 321 319 318 317 314 314 313 312 310 309 311 311
288 288 286 284 286 287 289 289 291 291 291 289 289 291 291 290 290 291 289 291 291 291 291 292 292 292 294 296 297 299 302 305 308 309 313 317 319 321 323 323 323 323 324 324 325 325 326 326 325 325 326 327 328 328 327 328 327 326 326 328 329 329 330 330 330 330 329 329 327 326 325 325 323 322 322 324 326 324 326 325 324 321 318 315 316 319 319 317 316 316 314 312 312 313 313 312 312
289 288 286 284 285 285 288 290 291 290 291 289 288 287 289 290 291 291 289 290 292 293 292 292 292 292 292 294 296 297 301 301 301 303 307 311 316 318 319 321 318 320 322 323 324 325 325 326 325 326 326 327 328 329 328 328 329 329 328 328 329 328 327 327 328 329 330 330 329 329 326 324 324 323 321 323 324 325 325 324 323 323 321 318 319 318 318 315 316 313 311 311 313 314 312 313 312
288 287 285 284 284 286 288 289 290 290 291 287 285 288 290 291 291 291 289 291 291 293 294 294 293 293 292 292 294 296 296 298 298 300 305 310 313 315 317 319 320 322 323 323 324 324 324 324 325 326 326 327 328 329 328 328 328 326 327 323 327 323 322 325 325 325 326 328 329 328 326 326 325 324 325 325 326 327 327 326 325 324 323 321 319 317 317 317 316 315 313 314 314 311 313 312 311
287 286 284 283 284 286 285 287 290 290 287 287 286 286 288 289 287 289 292 291 291 292 293 293 293 294 294 293 294 296 296 297 297 298 300 306 311 314 315 317 319 320 321 321 322 323 325 324 325 325 325 327 327 327 326 328 327 324 321 319 321 324 321 320 321 320 323 323 324 325 325 326 325 325 326 326 327 328 327 326 325 324 324 322 321 320 319 318 316 313 314 315 316 314 310 311 311
288 288 284 283 285 286 285 285 288 288 290 288 285 284 285 284 288 287 291 291 291 292 292 292 292 293 293 294 294 295 297 297 297 297 297 301 307 312 315 317 317 318 319 321 322 323 325 324 325 325 325 326 327 325 325 325 322 319 317 316 317 317 317 316 316 320 320 320 322 319 322 323 325 325 325 325 324 324 323 323 320 320 319 322 322 321 321 321 320 318 316 315 314 315 314 311 309
286 288 289 288 287 288 288 287 286 283 285 285 289 282 279 279 283 287 292 288 289 290 291 292 293 293 292 293 294 294 294 294 297 299 299 300 307 311 312 313 315 317 319 321 322 324 324 325 324 324 324 325 325 324 324 324 324 324 320 320 319 317 319 317 319 322 319 319 321 315 315 319 322 323 323 323 323 321 322 322 322 321 320 321 320 320 321 321 320 317 318 318 316 315 316 315 310
284 286 289 288 288 288 287 286 284 279 279 285 286 283 276 281 283 283 285 285 289 288 288 292 292 293 292 293 294 294 294 294 293 296 296 298 304 308 312 313 315 316 318 319 319 321 321 322 323 323 324 324 324 323 322 322 323 323 323 323 322 320 319 317 314 314 318 315 315 316 317 316 321 323 321 323 323 323 324 324 324 324 322 320 318 321 321 320 318 319 317 317 317 314 312 312 312
283 287 289 288 288 286 287 287 285 278 281 287 282 280 278 279 284 282 281 284 285 286 288 289 292 292 292 293 294 293 294 293 295 298 299 299 303 308 311 314 314 316 316 312 315 316 318 319 320 321 322 321 322 321 321 323 324 322 322 321 320 320 318 315 310 311 312 312 314 314 313 314 316 318 320 320 321 321 321 321 321 321 321 321 318 319 319 318 317 317 315 316 315 313 313 313 313
286 288 289 289 290 289 287 287 282 282 284 280 280 285 281 276 281 283 283 285 285 287 288 290 291 292 292 293 294 294 294 295 295 297 298 299 301 304 309 311 311 308 306 310 313 314 314 315 316 317 319 319 320 320 320 321 322 322 322 320 317 315 312 309 306 306 310 312 312 309 312 314 315 316 317 318 318 318 317 321 321 321 321 320 316 319 318 318 318 316 315 315 314 314 314 313 313
293 292 291 290 288 287 286 282 283 283 279 277 280 281 277 277 278 280 281 285 284 286 289 290 291 292 292 293 293 294 293 293 293 295 296 297 298 299 299 300 300 301 301 302 302 303 308 310 313 315 318 318 319 319 320 320 320 319 319 317 316 310 308 307 306 307 306 307 308 307 309 311 311 313 312 313 314 316 319 319 319 318 317 317 316 318 318 317 317 316 316 316 315 314 313 313 312
294 293 291 288 284 283 281 281 279 279 275 276 279 279 280 277 280 284 284 284 285 287 287 287 287 289 290 290 291 293 294 295 294 294 296 297 296 297 298 300 299 298 297 298 299 301 306 310 312 314 316 316 316 319 318 319 318 318 319 316 315 312 309 310 308 304 305 305 308 304 305 306 305 306 305 307 307 310 313 315 316 316 316 313 314 315 315 315 315 315 315 314 313 312 311 312 311
295 287 285 287 285 282 279 277 278 275 270 275 278 280 280 275 276 280 283 283 283 286 286 289 290 288 290 290 291 293 295 295 294 295 297 297 297 298 298 299 299 299 298 297 298 298 302 307 310 313 311 313 313 316 316 317 316 315 315 315 315 313 311 311 311 308 307 307 306 306 302 303 303 303 304 305 306 307 309 308 306 307 309 313 313 313 313 313 313 313 313 312 312 312 312 310 310
289 287 288 284 275 275 276 274 274 272 272 278 278 280 280 279 281 283 283 285 287 284 287 289 288 289 289 291 292 294 294 294 294 294 295 296 297 297 297 297 298 298 299 297 298 298 300 303 307 311 311 308 311 311 314 312 312 312 314 314 313 312 312 311 310 309 306 308 305 304 304 303 300 301 302 303 302 303 303 304 304 304 304 303 306 309 310 310 310 309 309 310 310 309 309 308 308
286 287 283 280 273 272 270 266 266 268 275 277 279 280 279 279 283 289 291 294 291 287 286 286 287 290 291 292 291 292 292 293 295 293 293 294 295 295 296 297 298 296 297 298 296 297 298 302 303 309 309 305 306 308 310 310 310 309 311 312 311 311 310 310 310 310 305 305 305 305 305 303 301 300 301 300 298 301 301 301 301 301 300 300 302 305 307 308 307 307 306 307 307 308 307 307 307
286 286 287 282 277 270 269 269 273 274 276 276 278 277 273 278 282 284 288 290 286 286 285 285 286 288 289 290 291 291 292 292 291 292 294 295 295 294 296 296 296 297 297 297 297 297 297 300 302 305 306 302 305 307 308 309 308 308 309 310 311 311 311 311 309 307 305 304 303 303 302 301 302 300 300 297 297 300 298 299 299 300 299 300 301 301 303 304 305 305 304 302 303 304 303 303 302
287 286 287 283 283 281 277 276 274 271 272 274 275 275 278 282 283 286 287 286 287 285 287 289 290 291 291 292 293 294 293 293 292 293 293 293 292 293 294 295 296 297 297 296 297 297 298 299 299 302 305 303 304 305 307 309 308 309 310 310 310 310 307 306 304 303 303 303 302 302 300 300 299 299 297 297 297 298 298 298 297 297 298 298 298 298 298 299 299 299 298 298 298 298 298 297 296
287 286 282 284 286 283 277 276 278 275 272 272 272 277 279 280 287 290 283 285 287 287 287 288 290 290 290 292 292 291 293 292 292 293 293 293 293 293 293 294 294 294 294 296 298 297 298 299 300 302 303 303 305 306 308 308 308 308 307 307 307 306 306 305 305 303 302 300 300 300 300 298 297 296 296 295 296 296 296 296 296 295 295 295 295 295 295 294 295 294 294 295 294 293 293 292 293
287 282 285 287 289 286 282 276 270 269 272 273 273 276 277 277 278 283 283 285 287 284 286 286 286 287 290 292 292 293 293 293 292 292 292 292 293 293 292 293 293 294 294 294 296 296 299 300 302 304 305 306 305 307 307 307 307 306 305 305 304 304 304 304 304 303 301 300 298 298 297 297 295 295 296 294 294 294 294 293 294 293 293 293 292 292 292 291 291 289 289 290 290 290 290 288 289
288 286 291 287 281 280 281 278 271 270 268 266 272 275 276 277 282 282 284 285 289 289 287 285 287 287 290 290 291 291 290 290 292 292 291 291 291 291 291 292 292 292 293 293 296 298 299 298 300 304 305 305 305 305 304 305 306 305 304 303 304 304 303 302 301 300 300 298 296 296 295 294 293 293 294 293 292 291 290 289 290 289 289 289 289 289 288 288 288 288 286 286 286 285 286 286 285
289 289 287 288 286 281 279 280 277 277 271 269 270 275 277 280 281 282 287 286 287 288 286 287 289 289 290 291 291 291 292 293 293 292 291 291 290 290 291 291 292 292 293 294 297 297 299 300 302 303 304 305 305 305 305 305 304 304 302 302 302 301 300 299 298 298 297 296 295 295 294 293 292 292 291 290 289 289 288 288 287 288 287 286 287 285 285 285 285 284 284 285 284 285 286 284 285
285 285 283 286 284 284 282 281 276 276 267 267 266 269 273 279 283 286 289 289 289 287 288 288 289 289 290 291 292 292 293 293 292 292 291 290 290 290 291 291 291 290 291 293 296 298 298 299 301 304 306 306 305 304 304 303 303 302 301 300 299 298 296 296 295 295 294 293 293 292 292 291 290 289 288 289 288 288 288 287 287 286 286 286 286 285 284 283 284 284 284 285 284 284 286 284 283
289 288 285 286 281 280 278 278 280 273 275 272 267 273 274 282 285 288 290 289 286 286 288 289 289 289 289 291 292 293 294 292 290 290 289 289 289 289 290 289 289 289 290 292 293 297 299 300 301 301 303 304 302 302 301 301 301 300 299 297 295 294 293 293 293 292 291 290 290 289 289 289 289 286 287 288 288 286 285 286 286 286 285 285 284 284 283 283 285 285 285 283 284 284 284 284 283
Wind_Speed
6 5 3 1 4 5 1 3 1 3 1 1 1 1 2 0 1 3 1 1 4 3 1 3 4 3 3 3 10 7 3 2 2 5 2 1 4 9 8 10 8 8 7 4 5 4 4 8 11 10 11 13 13 13 13 14 14 14 15 15 15 16 17 17 16 15 15 17 17 17 16 15 15 16 16 16 16 16 17 17 17 16 16 16 16 16 16 16 16 16 16 17 17 17 16 16 16
3 4 2 1 2 2 1 1 2 2 4 3 1 1 1 2 3 5 4 4 2 3 1 8 10 13 13 13 9 3 6 4 2 1 2 3 8 8 9 11 10 10 7 5 5 4 4 5 9 8 11 16 15 14 14 14 15 15 15 15 16 16 17 17 16 14 14 17 16 15 15 16 16 15 14 13 14 17 17 16 16 16 16 16 16 17 17 16 16 16 16 17 17 17 16 16 17
3 5 4 5 3 2 1 3 1 1 0 1 2 2 2 3 5 3 4 6 6 7 5 8 8 5 3 2 4 3 1 3 6 3 4 7 11 6 8 8 7 8 8 5 5 4 4 5 8 10 12 15 15 14 14 15 14 14 14 15 15 16 16 16 15 14 14 14 14 15 18 15 16 16 16 15 15 16 16 16 16 16 16 16 17 17 17 17 17 16 16 17 17 16 16 17 17
1 2 3 3 1 3 1 2 3 4 1 5 0 1 3 5 4 5 4 5 5 3 1 3 5 2 4 10 5 4 5 2 2 5 6 6 4 9 8 9 8 7 6 5 4 4 4 6 8 9 8 14 14 14 14 14 14 14 14 14 15 15 15 15 15 14 14 15 14 15 15 16 15 15 15 16 15 15 15 15 15 15 16 16 16 17 17 17 16 16 16 16 16 16 17 17 18
2 1 1 4 3 1 1 1 1 3 1 4 5 2 2 4 6 4 2 1 2 5 4 3 5 3 2 6 1 1 2 3 3 3 2 2 8 9 9 9 8 7 6 5 4 4 4 9 8 9 10 12 14 12 12 14 14 14 13 14 14 14 14 14 15 14 13 13 16 16 14 14 15 15 15 15 15 14 15 16 16 14 14 15 15 16 16 16 16 15 15 15 15 16 16 17 18
5 4 3 2 0 2 3 1 2 1 4 5 3 4 5 6 8 4 3 0 0 5 5 4 4 3 3 2 1 3 3 3 2 3 3 5 10 11 11 8 8 7 6 4 4 4 5 8 7 9 11 11 12 13 13 13 14 13 13 15 14 13 13 13 13 13 11 14 15 15 14 14 14 15 15 15 14 14 14 14 15 15 14 14 15 15 15 16 15 14 14 15 15 15 14 15 16
2 4 3 4 1 4 3 1 4 2 2 6 6 6 8 6 5 8 4 4 3 8 2 3 7 5 6 1 3 1 3 2 2 3 4 7 10 10 10 8 7 7 6 5 4 5 5 8 9 9 9 10 11 9 12 12 14 13 13 14 14 13 13 14 13 13 12 14 15 15 15 15 15 15 15 14 13 13 13 14 15 15 15 15 15 15 15 14 14 14 14 14 14 14 13 14 16
1 2 1 2 1 2 0 2 4 4 2 6 5 11 6 6 5 5 5 4 2 3 2 4 1 6 0 2 3 3 2 1 5 7 10 10 10 9 8 8 8 7 6 4 4 4 8 8 8 8 10 11 9 9 12 12 13 13 13 14 13 13 13 13 13 13 13 14 13 15 14 14 14 15 15 14 14 14 13 13 13 13 13 13 13 14 13 13 13 13 13 13 12 12 13 13 15
3 3 0 4 0 2 2 2 2 3 1 3 2 2 7 7 6 6 4 1 3 4 3 3 4 9 1 4 2 3 2 3 11 12 10 10 10 9 7 8 9 7 6 4 4 4 3 7 8 8 8 8 7 9 12 12 11 13 13 13 13 13 13 13 13 12 12 13 12 13 15 14 14 14 14 15 14 13 13 13 13 13 12 13 13 13 13 13 13 13 13 11 11 12 12 13 14
2 2 1 1 2 1 3 4 1 1 2 3 7 6 6 4 3 2 8 5 5 6 1 1 1 6 3 7 1 2 2 6 13 10 9 10 10 8 8 8 8 9 6 5 4 4 4 8 8 8 7 7 7 8 11 11 11 12 13 13 13 12 12 12 12 12 12 14 14 12 13 13 13 13 13 14 14 13 13 13 13 13 13 13 12 13 13 13 13 13 12 11 11 11 11 12 13
1 4 2 2 1 0 2 3 3 1 1 0 1 4 7 4 6 4 2 5 1 5 2 5 6 8 4 1 1 3 1 7 14 12 9 9 9 9 8 7 8 9 8 6 4 4 3 4 8 8 7 7 7 6 8 10 11 12 13 13 13 12 11 11 12 11 11 11 12 12 11 12 13 12 13 13 13 13 12 13 13 12 12 12 12 13 13 12 12 12 12 11 11 10 11 11 12
1 1 1 2 2 4 3 3 1 1 1 0 3 3 3 5 5 4 5 8 2 6 4 3 5 4 5 2 1 0 2 5 11 10 8 8 8 8 8 6 7 7 7 5 4 4 4 4 4 7 8 8 7 6 8 7 8 9 11 12 12 12 11 11 10 10 12 11 11 10 11 13 13 13 12 13 12 11 11 11 11 12 11 11 12 12 12 12 12 12 11 10 9 9 9 10 11
3 0 5 3 2 1 2 2 4 1 1 3 5 2 3 6 7 9 6 5 5 7 3 3 11 2 3 2 2 1 4 7 7 8 8 9 8 7 7 8 8 8 7 6 5 4 4 4 4 4 5 8 7 7 7 7 6 7 8 9 9 10 10 10 10 10 11 10 11 11 11 11 12 12 12 12 11 11 12 11 11 11 11 11 11 11 11 11 11 11 10 9 8 9 9 9 10
2 3 3 2 0 2 4 3 0 5 2 4 2 1 3 3 4 8 8 8 4 6 0 8 6 6 3 3 1 2 5 6 6 6 8 10 8 8 9 8 9 9 7 7 6 5 4 4 4 4 5 4 3 5 7 7 7 7 8 8 7 7 9 9 9 9 9 9 8 9 9 10 11 10 10 10 10 11 10 10 10 10 10 10 10 11 11 11 10 9 8 8 8 8 8 8 9
0 1 2 1 0 1 2 7 10 5 6 3 2 2 2 2 4 2 10 7 2 1 3 2 4 4 5 8 4 9 8 8 6 6 10 10 10 9 9 8 8 9 8 7 6 7 6 5 4 4 4 5 4 3 4 5 7 7 8 7 7 7 8 9 9 8 9 8 8 9 10 10 9 10 10 11 10 10 10 8 8 8 9 10 10 10 10 10 9 8 7 7 7 6 6 6 6
2 3 2 0 2 1 3 0 1 4 4 4 2 5 7 2 1 5 1 4 3 2 1 2 1 2 6 11 7 15 11 7 6 9 11 11 9 8 9 9 8 8 7 7 8 6 6 6 4 4 4 5 3 3 4 4 6 8 8 7 7 8 9 9 9 9 9 9 8 9 9 8 7 7 9 7 10 10 9 7 7 7 8 9 9 9 9 8 7 7 7 5 5 4 4 4 3
1 3 0 3 3 2 4 3 5 4 2 4 2 2 4 2 1 1 1 1 9 1 3 1 1 1 13 5 5 14 10 7 8 11 11 9 9 8 7 7 7 6 6 7 7 7 7 8 7 5 5 5 4 4 4 4 4 7 6 7 8 8 8 9 9 9 8 8 7 7 7 5 4 4 5 4 7 5 7 8 7 7 8 8 8 8 8 7 7 6 5 4 3 3 4 4 4
1 1 3 2 3 1 4 5 9 3 9 5 5 4 9 5 1 2 4 10 6 3 5 3 4 5 1 1 12 13 10 10 10 13 11 10 9 8 8 7 8 10 8 8 7 8 8 8 9 7 5 6 5 5 4 5 4 4 4 4 4 5 6 7 6 5 5 4 6 5 4 4 5 3 3 5 4 4 6 8 7 6 7 6 6 7 7 6 5 5 4 4 3 3 3 2 3
2 1 2 6 4 6 5 3 6 6 5 9 6 4 7 6 8 3 6 1 4 5 3 3 4 5 7 9 12 13 10 9 11 12 14 14 11 13 10 8 8 8 10 8 7 9 8 7 7 7 7 6 6 5 4 5 5 3 4 4 4 5 4 4 4 4 4 4 3 3 3 3 3 4 3 4 4 5 5 8 7 7 6 6 6 7 6 6 4 4 4 3 2 1 1 2 3
2 2 2 5 6 3 3 4 9 5 11 7 6 5 4 6 3 2 5 6 3 8 5 1 2 5 8 8 11 11 11 10 10 13 13 13 12 13 11 11 9 10 10 9 9 8 8 8 9 8 8 8 7 6 5 5 4 4 4 4 4 4 4 3 3 3 3 3 4 3 3 3 2 2 5 6 6 3 4 6 7 7 6 6 6 5 5 4 4 3 2 2 2 2 2 3 4
2 2 3 3 1 1 3 0 4 3 12 10 7 3 4 4 4 3 7 8 3 3 7 11 11 11 10 12 12 10 11 10 8 10 11 11 10 9 11 13 12 11 9 8 7 9 9 9 9 8 8 8 7 6 6 6 6 5 4 4 5 4 4 4 4 4 3 3 3 4 3 2 3 2 3 3 4 4 3 3 3 3 3 3 5 3 3 2 1 1 0 1 0 1 1 4 3
1 6 5 4 0 1 5 3 3 5 0 11 6 8 6 2 1 5 11 9 7 9 11 7 15 14 15 14 13 10 11 11 10 10 11 12 12 10 6 4 2 4 6 8 10 9 9 9 9 8 8 8 8 7 8 7 7 6 6 5 5 5 5 5 5 5 4 4 3 4 3 3 4 3 3 3 3 3 4 4 3 3 2 3 2 3 2 2 2 1 1 2 2 2 3 3 3
3 3 3 4 3 2 1 1 2 6 5 7 8 4 5 5 2 4 11 8 4 7 7 9 13 17 16 15 14 12 12 12 11 12 11 11 9 8 9 8 8 9 8 8 8 9 9 8 9 8 9 9 9 7 7 6 6 6 6 6 6 5 5 5 5 5 5 4 4 4 5 4 5 5 4 4 4 4 5 3 4 4 4 4 3 4 3 2 2 2 2 3 2 2 3 3 3
3 5 0 2 2 6 2 2 4 3 10 10 4 5 6 5 6 2 5 4 3 2 6 12 10 9 11 13 14 17 16 15 14 13 12 12 11 11 10 10 8 5 6 7 7 8 9 10 10 8 9 9 8 7 7 7 6 6 6 6 6 7 6 6 6 6 5 5 4 5 5 6 6 5 5 5 5 3 4 4 3 4 3 4 3 4 4 3 3 3 2 3 3 3 3 3 2
5 5 3 2 0 3 1 2 1 3 1 1 8 8 8 6 4 4 6 4 2 1 5 9 11 12 11 14 15 13 13 11 11 9 5 4 5 5 4 4 4 5 8 7 7 8 9 10 9 10 9 10 8 8 7 7 7 6 6 6 7 6 6 6 7 6 5 5 5 5 5 6 5 6 5 6 5 5 4 4 4 5 5 5 3 5 3 4 4 3 4 4 3 3 3 3 3
4 7 1 0 1 2 1 1 0 3 1 4 7 2 0 2 1 4 6 5 1 4 8 12 12 12 13 14 15 14 14 15 13 10 11 7 6 7 7 6 6 6 8 8 7 7 8 8 10 10 10 10 9 8 7 7 7 7 7 7 7 6 6 7 5 5 6 5 5 4 6 7 7 6 6 5 6 6 5 4 4 5 5 5 5 5 5 4 5 3 3 4 3 4 3 4 3
2 5 4 3 0 1 1 0 1 1 2 3 8 2 2 2 1 3 3 4 5 7 9 10 14 14 14 11 11 12 14 15 16 13 8 7 8 10 9 7 8 8 7 7 7 7 7 8 9 10 10 9 8 9 7 7 7 7 7 7 6 7 7 6 6 6 6 6 6 6 5 6 6 6 6 5 5 6 5 5 6 5 5 5 5 6 4 5 5 5 5 5 4 4 5 4 3
9 3 2 2 0 1 0 1 3 0 1 1 6 2 0 2 1 5 6 5 7 11 8 10 11 13 12 12 12 10 11 12 10 9 15 13 12 11 11 11 9 9 9 9 8 7 7 9 10 10 10 10 9 9 8 7 8 8 8 7 7 7 6 6 6 6 6 6 5 5 5 5 5 5 5 5 5 5 5 6 6 5 6 5 5 6 5 5 5 5 4 4 3 3 4 4 2
6 5 4 1 1 1 1 4 3 0 2 4 3 5 0 0 5 6 3 6 5 10 10 11 10 10 11 10 10 9 12 10 9 11 14 14 12 11 13 11 11 11 8 10 10 8 10 10 10 10 10 10 10 10 9 8 7 7 7 8 7 7 7 6 6 6 6 6 6 6 5 5 4 5 5 6 6 5 4 5 5 5 6 6 5 5 4 4 3 3 4 1 2 2 3 5 1
2 3 4 1 0 2 5 1 1 0 1 4 1 4 6 9 12 0 4 9 5 6 8 9 8 8 8 9 10 10 7 7 10 13 12 12 11 12 13 12 12 11 10 9 10 12 10 8 8 8 9 11 12 9 9 8 8 7 6 7 7 7 6 7 7 6 6 6 6 6 6 6 5 5 4 4 4 5 4 4 4 5 5 4 4 3 4 4 4 3 5 1 4 2 4 4 3
2 2 1 4 4 5 2 4 2 3 0 1 0 5 6 9 11 3 5 10 13 11 9 9 8 8 8 9 9 10 11 12 15 15 13 12 11 11 12 10 11 11 8 9 13 13 11 10 9 8 10 11 11 10 10 9 7 7 7 6 7 7 6 6 6 5 5 6 6 6 6 6 6 5 4 5 3 3 3 3 3 5 5 3 4 4 5 4 3 5 3 3 3 3 3 4 3
1 3 5 0 6 5 3 1 5 7 1 3 3 2 7 7 8 5 7 6 10 11 9 9 8 8 9 8 9 9 11 11 11 11 12 13 12 11 12 13 11 10 12 12 11 10 11 10 9 9 9 10 10 10 9 9 8 7 6 6 6 6 6 6 6 6 6 5 6 6 6 6 6 5 5 4 5 4 4 3 5 3 3 3 4 4 3 5 5 4 3 3 4 5 4 5 3
2 4 2 3 2 5 1 4 4 3 2 0 4 5 2 7 6 3 6 9 7 9 9 9 10 10 9 9 9 9 7 7 9 11 13 12 11 11 11 12 12 13 11 11 11 10 11 11 11 11 11 11 10 9 9 7 7 7 7 7 7 6 6 6 6 5 6 6 5 5 5 5 5 5 5 5 5 4 3 3 3 3 3 4 4 4 4 4 5 5 5 4 4 5 5 5 6
4 1 2 3 7 2 2 4 2 3 3 6 2 2 5 3 5 1 4 7 8 7 9 9 10 9 9 8 8 9 9 9 13 14 15 13 11 12 11 12 12 11 10 12 12 13 12 10 10 11 10 11 10 10 9 8 8 7 6 6 6 7 6 6 6 5 6 6 6 6 5 6 5 4 4 3 4 5 4 4 3 4 4 4 4 3 4 3 2 3 4 4 5 5 5 6 7
3 2 1 1 1 3 4 5 4 5 2 5 3 4 9 8 4 3 3 4 7 10 10 10 10 8 8 7 8 10 10 11 14 13 14 13 13 12 12 11 11 9 9 11 11 11 10 10 9 10 10 10 9 9 8 7 6 6 6 6 6 6 6 6 6 6 6 6 6 6 6 6 7 7 6 6 5 5 5 5 4 3 3 3 3 3 3 3 2 3 4 5 4 5 6 6 7
6 6 4 3 5 4 3 4 1 6 5 5 5 8 11 12 6 4 4 1 6 9 4 4 6 7 7 8 9 9 11 14 12 10 11 11 11 12 12 11 10 9 9 9 11 11 11 10 9 9 9 10 8 8 7 7 6 7 7 5 6 7 6 7 6 7 6 6 6 5 5 6 5 6 6 6 5 5 5 5 5 4 3 3 3 4 4 4 5 5 6 6 6 5 5 5 3
2 0 2 4 6 4 2 2 2 0 2 7 7 9 8 5 6 7 4 1 3 5 6 6 6 8 8 9 10 11 11 15 9 8 8 10 12 11 11 9 10 9 9 9 10 11 12 13 11 12 10 9 9 9 8 9 9 7 6 9 9 7 7 7 7 6 6 6 6 6 6 5 4 4 5 4 6 5 5 5 7 5 4 4 4 6 6 6 6 6 5 5 7 7 4 3 4
4 2 0 5 3 5 2 1 1 4 5 3 3 4 8 9 8 6 0 1 9 10 8 8 9 8 8 9 11 11 13 4 0 4 5 5 8 9 9 9 8 10 10 10 12 12 11 10 13 13 10 10 11 11 10 9 9 10 9 9 8 7 7 7 8 7 7 6 6 6 5 5 5 5 5 4 5 5 5 5 5 7 5 5 6 5 4 5 5 5 4 3 4 5 3 4 4
4 5 4 2 6 3 3 2 2 2 2 8 0 5 10 11 9 6 3 8 7 7 9 11 11 11 10 9 10 11 6 8 6 7 6 8 9 9 9 9 10 13 12 13 12 10 10 11 12 11 11 11 11 11 10 11 8 7 9 6 8 5 4 5 5 5 5 6 7 6 6 5 6 5 5 6 5 5 6 7 7 4 4 5 5 6 5 5 4 4 5 6 5 3 5 2 3
4 3 2 5 4 5 5 2 0 2 2 1 1 3 8 7 3 7 9 8 6 7 9 11 8 12 13 13 13 13 12 10 10 10 10 9 9 9 8 9 11 9 10 9 9 12 10 10 10 10 11 11 10 11 11 10 9 6 5 4 4 6 5 5 4 4 5 5 6 6 6 5 6 6 6 6 6 7 7 7 6 5 7 5 5 5 4 4 4 6 5 6 5 4 2 4 3
4 4 3 3 2 5 4 4 1 0 0 2 1 3 7 5 5 5 8 8 5 5 6 8 10 9 7 5 6 9 12 13 12 9 7 7 8 11 13 12 8 10 11 11 12 12 10 13 12 12 11 12 10 10 11 7 6 4 4 1 1 2 1 2 4 5 5 5 5 5 6 5 6 6 6 7 6 7 6 5 4 5 4 5 5 5 6 8 7 6 5 4 5 5 5 3 2
5 5 8 8 7 7 0 3 5 1 3 1 1 3 5 4 6 10 10 1 4 6 7 11 13 11 7 10 12 8 8 7 11 13 13 12 12 10 8 8 10 10 11 11 11 12 11 11 11 10 9 9 10 10 10 9 9 9 7 7 7 6 8 7 10 10 6 6 7 3 3 5 6 6 5 5 5 4 4 5 4 4 4 4 4 6 5 4 5 2 3 5 5 5 5 5 3
5 6 8 7 7 6 7 5 4 1 3 2 1 7 5 5 3 5 5 4 10 5 5 11 10 10 8 12 10 9 10 9 6 6 5 6 8 8 10 10 11 11 12 9 8 9 9 8 8 9 9 8 9 8 9 9 8 9 12 12 10 9 9 6 1 2 5 4 3 4 5 4 5 6 5 5 5 6 5 4 4 4 3 3 4 5 5 4 3 3 2 4 5 3 2 4 6
6 2 4 5 6 7 8 9 7 2 1 1 4 2 3 5 8 4 3 2 7 6 9 12 12 11 11 11 10 10 10 8 8 9 9 8 8 11 14 13 11 12 10 6 7 6 8 9 9 9 8 8 7 7 9 10 11 10 10 10 9 8 8 6 4 3 2 4 4 3 3 3 2 1 3 1 1 2 3 2 1 1 1 2 2 1 2 1 2 2 1 1 2 2 3 4 4
4 3 7 8 9 8 8 6 4 1 1 4 1 0 1 5 7 6 1 2 5 8 10 12 14 12 10 9 11 12 11 9 8 10 10 11 11 11 9 10 9 6 4 7 8 8 7 6 6 6 8 7 7 8 10 10 10 10 10 8 7 5 4 4 3 2 4 4 4 3 4 4 5 4 4 5 5 4 3 3 3 3 5 4 2 3 2 3 4 3 3 3 2 2 2 3 3
2 6 5 6 7 6 4 5 5 0 2 6 4 2 4 7 6 5 2 1 5 8 9 10 10 12 12 12 11 9 6 5 5 7 6 6 6 6 5 2 2 5 5 4 4 4 5 5 6 8 9 8 8 9 10 10 9 8 8 7 8 5 4 3 3 4 4 4 5 4 4 4 5 5 4 5 5 4 5 5 4 4 3 3 3 4 6 6 3 3 4 5 4 3 3 2 2
6 6 6 5 7 3 3 5 3 3 2 7 6 3 2 4 4 7 5 5 7 6 6 6 5 5 6 7 8 7 6 5 5 4 3 2 1 2 2 6 5 3 4 4 5 5 6 7 7 9 9 7 8 9 10 11 8 8 8 8 8 7 6 7 5 4 4 4 6 4 5 4 4 4 3 4 3 3 3 3 4 3 3 4 5 5 3 3 4 5 5 3 3 3 3 5 3
10 3 4 6 4 6 4 3 4 3 5 5 1 3 2 6 4 5 8 5 4 5 6 8 8 6 7 6 5 6 5 5 4 4 3 2 3 1 1 3 3 3 2 4 5 5 5 7 7 9 7 8 7 8 8 9 8 7 6 8 8 8 9 8 8 7 6 7 6 6 3 4 4 3 4 4 4 2 3 5 5 4 3 3 4 3 4 4 4 4 5 4 5 5 5 4 4
3 6 8 9 2 3 3 1 3 5 6 1 0 2 1 7 8 7 6 7 9 7 8 8 7 8 7 5 5 5 5 5 5 4 4 3 4 4 4 3 2 3 5 5 6 5 5 5 7 9 8 6 7 6 8 7 6 7 7 7 7 7 8 8 7 7 6 7 6 5 5 4 2 4 3 5 3 4 4 6 5 5 5 3 3 5 4 4 4 4 3 5 6 6 6 5 5
5 9 7 7 2 2 4 3 1 4 6 4 0 0 2 3 8 13 16 18 6 3 9 8 7 8 6 5 4 4 4 4 4 4 4 4 4 4 4 4 4 4 4 4 5 5 5 5 5 8 7 6 5 6 7 7 6 6 7 7 7 7 7 7 7 8 6 6 5 6 5 5 5 5 5 4 2 5 6 5 5 5 3 4 4 4 4 3 3 4 4 4 4 4 5 5 5
5 3 9 7 7 5 3 3 5 7 7 1 3 2 6 5 5 1 7 8 8 7 7 6 5 5 4 3 2 2 3 4 3 4 4 5 4 4 4 4 4 4 4 4 4 4 3 4 5 6 6 4 5 6 6 7 6 6 6 6 7 7 8 7 6 6 7 6 4 6 5 5 6 4 5 3 3 7 5 5 5 5 5 5 4 5 5 5 5 5 5 4 5 4 4 4 4
2 2 5 5 7 6 5 6 3 2 1 0 1 5 5 6 2 6 5 7 7 3 3 2 4 1 1 3 5 5 4 4 3 3 4 4 4 4 4 4 5 5 5 4 4 4 4 4 4 4 6 5 5 6 5 7 6 6 7 8 7 8 7 7 6 5 5 6 6 8 6 5 5 5 4 5 4 5 5 6 5 5 4 5 5 4 4 5 4 6 5 5 5 3 4 4 3
5 5 6 5 1 8 5 3 0 2 4 5 2 5 5 9 9 9 3 4 6 2 3 2 3 2 1 5 5 4 4 4 3 4 4 4 1 2 4 4 3 3 3 4 4 4 4 4 4 4 4 4 6 6 7 7 7 8 6 8 8 8 8 8 8 8 7 6 7 6 7 5 5 4 4 4 5 4 5 5 6 5 5 4 5 5 5 4 5 5 4 4 4 3 4 3 3
7 3 8 2 2 4 4 5 2 1 4 6 2 7 4 2 5 4 5 3 9 5 5 4 3 2 4 6 5 6 5 4 4 3 2 2 2 2 1 1 1 3 3 3 3 3 4 4 5 7 6 7 5 7 7 8 9 8 7 7 7 7 8 8 9 9 7 8 7 7 6 6 4 4 5 4 5 6 5 5 5 5 4 5 5 4 4 4 5 5 4 4 2 3 4 3 3
5 7 4 7 4 4 1 4 1 1 2 4 2 2 4 6 7 3 3 5 9 9 6 3 6 6 8 6 7 5 4 3 4 4 3 2 3 3 3 3 1 1 1 3 4 4 4 4 4 6 7 6 7 6 6 6 7 6 6 7 8 8 7 8 8 8 7 8 7 6 7 6 5 5 6 6 6 6 5 5 5 5 5 5 4 4 4 4 4 5 4 4 3 3 3 3 3
1 3 3 1 2 3 5 7 3 4 4 0 5 2 5 7 6 8 7 8 8 6 3 7 11 10 8 8 8 7 6 6 5 4 4 4 3 3 4 4 4 3 3 3 4 4 5 4 5 5 6 6 7 7 7 8 6 8 8 8 7 7 8 8 7 8 8 8 7 7 7 6 6 5 5 6 6 6 5 6 4 5 5 4 4 4 4 4 4 4 3 4 3 4 4 4 3
1 2 3 1 0 2 4 1 4 4 4 5 2 2 5 7 8 8 10 10 10 7 7 8 9 9 9 9 9 7 7 7 6 5 4 4 3 2 2 1 1 1 1 2 4 5 5 4 6 6 9 7 8 7 7 7 7 8 9 9 8 8 8 8 8 8 9 7 6 7 6 6 5 6 5 6 6 5 5 5 5 5 4 4 4 4 3 4 4 4 3 3 4 5 4 4 3
8 11 8 9 6 3 4 7 1 2 1 4 3 8 6 9 3 9 12 10 3 4 7 8 8 7 8 8 8 7 7 5 5 4 4 4 3 2 1 1 1 3 3 4 3 4 5 5 5 5 6 6 8 7 7 8 7 8 9 9 8 7 8 8 9 8 8 7 6 7 6 6 7 5 6 6 6 5 5 5 5 4 4 4 4 4 3 4 5 5 5 3 4 5 4 4 4
Wind_Direction
354 352 323 125 84 99 92 6 73 309 58 241 323 21 191 92 215 74 85 355 55 304 309 46 43 48 96 151 130 119 46 145 225 137 213 223 134 129 137 133 135 130 128 126 118 119 123 117 118 120 130 120 106 105 105 107 108 106 107 109 109 109 106 101 97 97 94 94 94 94 93 92 89 81 83 87 89 92 85 82 81 80 79 79 79 82 83 81 81 81 82 82 80 69 61 59 59
348 339 2 88 130 86 256 118 94 345 44 36 216 102 186 313 62 139 135 115 177 123 159 86 73 81 93 120 136 104 39 358 218 166 57 105 116 121 142 141 143 135 128 123 119 120 124 122 118 118 124 115 105 101 103 105 108 107 107 111 110 106 104 102 100 96 96 100 100 101 97 94 94 91 91 93 92 85 84 82 83 85 83 82 81 79 81 84 85 86 87 89 84 69 60 58 65
347 359 24 32 33 74 54 38 284 10 55 282 277 206 330 93 137 215 155 125 149 142 122 99 102 79 73 142 41 62 258 317 52 57 100 136 118 153 145 133 128 124 122 120 120 126 123 122 121 119 122 115 110 106 105 105 103 105 106 106 107 102 99 101 100 99 97 96 102 105 103 103 98 98 96 89 84 87 87 87 85 83 86 87 88 90 87 84 84 87 92 94 86 70 62 62 64
57 35 100 61 296 28 66 28 92 134 168 210 312 308 115 155 186 165 159 157 162 140 108 36 50 311 111 64 99 71 67 25 28 122 127 163 152 142 137 129 126 120 114 121 128 132 127 123 117 114 122 113 106 103 104 105 106 108 111 108 102 103 103 103 102 101 102 110 112 104 99 95 98 94 92 92 88 83 89 90 89 90 88 87 85 85 86 87 89 91 95 97 82 72 65 66 68
65 356 83 96 106 354 73 198 133 99 230 199 164 272 201 182 170 154 161 269 254 106 90 123 74 343 59 118 111 108 195 114 111 58 98 79 121 134 132 130 129 126 126 129 131 129 121 117 119 122 125 121 112 113 109 111 110 112 110 106 105 105 106 107 107 106 113 116 106 104 101 102 97 95 93 92 92 92 85 88 88 86 91 93 94 93 91 90 90 92 97 99 78 72 67 66 69
72 56 4 90 321 186 51 355 326 255 223 151 119 192 202 186 158 161 141 265 4 80 117 58 141 168 29 349 160 113 166 122 174 81 120 142 133 134 136 134 130 128 128 122 127 118 122 123 122 122 125 119 115 115 113 113 114 118 116 108 108 109 110 109 109 111 111 110 108 109 113 108 103 99 100 98 96 93 94 92 94 96 92 93 92 89 89 89 90 92 99 101 80 72 67 65 68
359 37 357 21 0 56 172 166 255 211 288 159 173 165 183 207 184 128 134 93 4 59 24 116 113 106 80 325 20 39 280 198 94 143 126 140 129 134 137 133 128 127 127 129 123 122 132 130 123 114 100 106 108 106 112 114 118 119 118 111 111 112 112 111 111 115 118 112 110 112 109 106 104 102 101 101 97 96 99 100 93 90 93 94 95 95 91 91 92 94 104 102 81 71 66 67 69
70 101 301 106 240 37 111 220 248 173 349 164 190 151 197 181 189 130 154 101 164 90 52 118 213 93 208 354 136 284 2 190 119 106 120 130 133 137 134 132 126 127 128 125 124 127 136 129 120 109 113 111 104 113 115 116 123 125 120 115 114 113 112 113 114 116 116 113 113 110 106 107 107 106 108 103 101 101 100 96 97 101 98 94 92 92 94 93 91 94 102 101 78 68 65 65 69
356 83 8 70 300 34 37 231 270 239 310 102 157 213 174 174 175 129 114 196 99 90 118 140 160 92 230 47 47 291 357 108 110 119 125 132 137 139 133 133 133 133 129 126 126 118 119 120 115 112 108 105 104 113 116 113 120 121 117 114 112 112 113 113 115 118 120 122 117 112 108 111 112 111 107 104 102 103 103 103 102 99 97 95 94 93 92 92 93 95 100 92 74 66 65 64 65
29 63 303 148 134 292 332 303 111 200 160 218 153 173 172 192 158 133 134 109 145 109 68 128 107 114 143 95 65 27 98 127 117 116 131 138 137 135 132 136 135 131 129 132 127 123 127 126 113 108 108 103 91 105 120 118 121 122 117 111 110 108 111 113 117 120 119 112 110 112 116 119 116 113 108 106 105 105 105 100 96 96 95 96 95 92 91 91 94 99 95 83 70 64 63 62 61
19 7 148 85 24 126 218 268 290 327 128 344 267 175 184 172 130 121 120 129 113 118 146 115 48 117 106 99 236 255 276 138 128 142 147 141 138 137 131 131 133 133 133 136 129 123 121 121 117 113 108 99 95 98 115 120 123 123 120 115 111 109 112 118 119 123 111 105 116 120 115 100 88 96 112 109 108 107 106 105 103 101 100 98 97 92 89 89 90 93 91 86 70 65 62 61 59
27 27 5 115 194 157 235 181 201 251 292 18 181 204 213 159 116 100 119 118 133 117 147 144 170 143 67 89 235 331 102 150 141 141 141 137 135 133 130 130 128 126 131 130 123 118 117 118 113 114 109 107 105 93 90 91 110 113 120 119 114 113 114 120 123 123 109 103 108 110 104 94 92 87 89 105 105 107 105 103 103 99 97 99 98 99 97 95 95 95 94 89 75 71 66 60 57
117 114 76 98 232 158 231 139 211 167 136 217 173 229 144 140 144 150 150 122 130 116 154 235 145 82 100 164 269 342 149 179 149 135 138 138 135 129 127 131 132 127 127 127 127 127 123 117 115 114 113 109 104 100 97 86 91 107 106 111 113 116 119 120 126 121 103 99 99 100 94 89 90 90 90 97 105 109 108 102 99 101 103 102 104 105 102 98 97 94 91 82 71 69 64 56 51
109 179 119 245 128 142 134 200 30 144 231 228 241 157 178 120 184 150 126 119 162 125 285 139 128 126 74 85 186 216 201 192 158 134 137 135 133 133 133 135 136 134 137 138 138 138 129 124 118 120 115 103 100 100 103 99 90 104 107 104 106 115 119 113 108 103 97 86 87 91 90 88 89 88 85 87 94 97 94 92 95 99 98 100 102 103 103 101 98 94 86 77 71 65 57 49 41
333 189 84 124 336 63 230 137 195 165 208 202 208 145 110 3 122 178 146 136 203 178 120 38 177 112 212 157 208 200 194 193 150 143 133 133 136 136 138 139 140 140 144 146 144 145 146 132 135 131 120 125 125 116 113 111 109 110 114 113 109 107 108 110 109 107 106 96 93 92 89 89 88 90 95 97 95 95 93 88 92 104 110 109 108 108 107 103 97 93 90 82 76 69 63 52 40
167 81 83 95 275 195 267 112 62 121 229 182 281 161 84 41 94 122 239 140 141 29 94 155 353 225 166 169 197 178 180 173 135 138 132 133 134 135 138 142 145 150 151 152 153 157 152 150 143 142 138 137 140 130 121 121 122 120 121 120 117 118 118 117 116 114 111 108 108 104 100 92 87 87 91 95 104 105 104 105 102 102 114 117 116 115 112 109 107 104 101 96 94 96 82 65 36
47 79 298 33 279 177 257 157 150 196 233 224 259 243 115 140 226 46 322 110 108 0 51 353 269 9 166 193 169 152 168 131 125 131 131 137 140 143 145 146 147 152 158 163 161 163 160 161 161 156 157 152 144 136 128 123 120 122 122 124 126 127 126 124 121 119 118 119 115 115 104 100 101 94 89 97 100 109 117 113 113 116 118 115 115 116 116 114 114 114 120 121 124 83 37 18 5
65 158 115 270 203 173 216 174 189 215 143 211 180 221 124 131 183 164 74 41 79 62 58 329 13 18 173 32 140 148 149 132 140 141 149 148 152 151 159 159 158 166 168 169 176 168 165 168 170 168 162 161 153 148 137 133 140 136 135 133 128 129 126 126 130 138 135 137 132 118 114 120 113 109 110 111 112 118 120 121 115 114 111 110 119 124 127 125 129 131 133 141 119 68 35 21 356
124 131 115 224 187 237 159 208 208 133 206 168 171 189 138 176 137 195 97 152 113 62 7 8 55 30 78 113 132 145 148 144 150 155 157 158 162 164 165 165 169 163 168 172 178 179 174 169 171 173 172 167 161 155 151 150 152 151 151 145 143 144 147 144 152 150 153 152 141 121 122 121 132 133 137 138 135 136 137 133 130 126 125 127 130 131 133 138 147 142 138 144 150 77 11 354 355
238 131 265 248 216 243 224 216 194 222 146 152 152 200 139 189 133 170 133 161 124 143 142 355 79 125 124 130 140 151 159 158 163 160 165 168 169 165 165 168 171 179 174 176 175 180 177 174 178 179 175 172 165 164 156 157 160 165 161 159 154 157 158 163 166 170 169 164 154 153 145 145 136 147 143 137 128 125 135 138 137 133 134 132 128 122 135 153 152 137 141 130 63 10 347 331 336
275 110 193 232 234 346 273 93 237 247 161 155 155 124 140 202 205 134 146 106 229 235 210 161 182 161 151 152 154 159 165 168 172 171 170 175 178 175 174 175 176 177 174 168 172 180 183 182 176 181 178 174 172 168 164 171 169 165 172 169 166 167 169 174 179 180 184 181 170 165 164 153 149 161 141 136 134 136 130 126 124 126 126 130 127 143 151 163 112 131 34 26 61 241 303 295 308
111 210 199 221 200 287 263 278 259 152 335 129 133 131 193 134 44 125 151 154 203 202 212 216 163 161 152 157 166 164 173 177 180 178 180 180 180 180 179 177 154 159 152 169 181 180 185 185 182 177 175 180 179 172 177 173 167 172 176 179 172 180 176 179 181 185 192 194 187 172 151 145 153 164 165 155 152 153 151 163 170 154 149 173 161 164 183 193 231 182 191 234 233 194 236 267 268
236 302 245 230 220 210 305 341 176 145 141 143 148 194 113 155 173 202 168 175 231 211 184 173 166 169 166 155 155 168 176 186 188 188 182 184 188 187 184 180 175 179 176 181 177 180 183 184 187 175 177 180 184 178 173 170 180 180 178 176 173 187 186 181 188 190 197 194 189 166 151 161 163 172 180 173 170 169 173 186 185 179 186 191 196 171 198 215 242 241 222 237 234 194 250 269 269
198 245 268 302 175 214 8 288 336 214 158 176 165 127 140 150 159 191 181 239 224 235 176 166 160 139 140 151 170 173 180 185 195 194 189 188 185 188 184 183 193 180 175 179 176 178 183 186 185 179 175 177 185 181 174 179 179 179 183 177 188 184 179 191 194 196 193 193 189 179 165 163 169 175 190 180 184 179 193 195 195 191 207 212 199 199 190 214 233 256 253 258 270 254 251 250 237
201 249 250 252 77 248 329 350 351 205 241 77 124 138 181 168 178 119 218 235 221 11 134 134 145 150 160 163 173 179 182 189 195 200 202 203 197 192 210 213 191 176 191 192 181 178 186 184 180 182 174 177 181 179 180 182 178 181 179 185 194 183 187 194 193 196 198 191 195 177 158 163 178 182 181 194 170 193 202 192 197 212 204 217 189 223 210 204 221 230 241 237 233 260 267 275 256
209 226 197 297 271 327 352 13 109 164 120 156 113 133 343 239 260 173 213 218 105 95 131 143 146 155 169 179 179 177 184 190 191 194 200 193 188 188 210 202 195 194 202 196 184 187 184 180 181 184 175 178 178 176 184 179 181 183 187 190 196 181 196 196 189 190 204 186 195 194 177 169 179 182 191 184 176 201 204 202 200 220 209 214 190 214 224 209 214 214 240 247 241 246 248 251 261
322 252 206 189 268 58 18 188 240 245 160 222 141 165 146 316 75 223 244 201 108 106 138 152 154 169 179 181 185 188 185 190 192 191 186 196 199 195 201 201 200 204 197 202 200 193 182 178 186 184 179 176 173 181 182 184 181 189 190 191 189 193 197 190 189 196 198 195 196 190 191 179 178 183 187 183 194 197 200 203 213 211 220 220 203 217 208 211 210 203 206 215 221 231 238 244 244
299 219 82 75 332 353 256 357 261 79 156 166 133 122 318 331 51 220 203 182 146 133 152 165 171 174 182 185 189 193 196 198 191 178 193 193 202 197 200 198 200 203 198 204 201 191 184 189 185 185 180 177 177 182 183 185 184 190 191 187 192 198 193 186 191 190 195 198 200 190 188 193 177 184 185 192 192 198 201 202 210 203 222 216 202 210 202 209 205 212 219 220 222 218 247 262 256
291 171 191 272 16 285 233 185 223 323 213 149 164 73 356 305 218 233 220 138 153 144 160 172 184 185 183 188 190 194 203 194 187 196 203 201 196 195 200 197 194 199 204 198 198 193 193 192 188 187 181 179 181 183 184 190 185 182 182 189 188 189 192 192 188 186 191 193 192 193 194 193 191 177 187 186 195 200 206 206 204 210 216 207 201 209 206 206 216 239 260 267 276 273 284 275 301
354 292 163 41 26 299 256 147 239 133 274 173 267 200 256 240 236 307 169 141 126 132 163 186 190 188 193 190 195 204 204 190 200 207 204 203 200 199 202 200 195 197 195 200 196 199 196 194 190 185 186 182 186 183 181 183 188 186 182 182 181 178 185 185 193 183 177 183 185 193 194 197 196 197 177 185 178 190 205 214 212 216 219 214 205 197 210 205 214 217 244 254 259 250 254 269 307
226 242 131 177 147 249 244 167 176 164 229 159 80 212 268 241 244 231 177 160 153 171 184 190 193 196 195 200 202 205 208 201 203 205 205 203 202 201 204 202 200 199 192 198 199 199 194 193 189 190 189 188 186 185 183 186 186 183 184 184 185 183 186 189 194 193 182 176 178 191 193 196 201 195 188 172 172 161 177 213 229 227 216 204 200 209 204 208 203 220 212 223 259 269 267 279 270
258 114 237 340 166 271 292 137 161 167 261 90 98 261 234 248 254 236 185 188 167 174 184 194 197 198 200 203 209 213 215 210 217 216 212 209 202 202 201 205 198 199 197 197 198 196 198 194 190 192 190 192 192 189 188 186 185 186 182 185 185 188 187 194 198 200 196 198 181 178 186 188 194 198 183 165 153 160 161 181 217 240 246 211 214 210 196 208 213 226 222 206 242 260 267 275 252
345 148 267 194 155 231 7 223 202 174 129 1 167 203 307 286 267 269 188 174 190 178 189 196 204 204 201 204 208 215 221 228 225 219 216 212 211 206 204 205 199 199 198 195 192 193 198 196 189 189 189 193 193 193 190 187 183 185 184 184 187 184 192 199 205 202 199 199 210 194 177 179 187 189 188 180 156 163 164 181 214 217 209 211 217 213 203 210 197 210 221 208 212 250 253 266 281
294 36 184 206 175 228 224 306 277 210 158 200 204 190 233 238 307 287 173 184 173 190 198 204 207 206 206 204 208 211 215 214 216 215 216 209 210 208 206 205 203 195 197 196 193 188 193 192 193 192 190 192 190 190 191 188 188 182 183 183 181 188 196 197 201 203 209 205 199 210 201 179 181 188 192 206 205 197 200 203 218 205 190 194 210 206 223 226 251 231 237 214 206 218 244 248 261
224 249 186 279 343 185 193 158 244 146 278 203 193 242 266 271 304 297 218 178 185 204 200 203 207 214 215 210 209 214 215 216 223 215 212 207 207 208 207 204 204 196 193 196 193 192 187 190 190 193 186 188 188 185 185 184 179 183 183 180 187 195 195 199 197 204 210 208 207 205 201 204 201 202 208 209 209 212 214 229 243 240 221 210 202 208 225 230 230 230 235 254 232 223 226 234 242
202 179 184 169 173 232 215 238 291 178 189 222 185 214 237 248 268 284 263 214 195 220 232 239 226 222 220 215 216 213 216 224 226 216 211 205 206 204 205 203 203 199 193 190 194 191 191 190 191 191 190 184 179 177 171 176 176 179 185 197 203 203 200 198 206 207 200 208 210 205 209 212 210 211 209 208 209 208 210 212 236 234 227 217 231 240 244 222 223 224 236 235 253 261 248 256 269
171 59 150 196 198 247 280 267 270 228 156 228 211 224 237 277 254 246 257 296 259 259 244 233 233 224 222 224 219 219 219 223 219 214 208 203 204 206 205 200 201 200 197 187 191 196 192 189 184 195 190 178 177 177 181 177 182 187 194 197 204 201 207 206 208 208 205 206 203 206 206 207 208 210 214 202 208 210 211 214 221 232 221 210 223 235 229 223 217 215 227 215 236 253 267 221 246
224 248 192 270 184 234 245 219 328 321 174 260 208 257 264 254 265 255 115 171 239 226 228 239 236 231 228 222 225 223 225 261 273 227 234 222 213 207 201 199 192 195 207 193 194 196 193 188 191 194 184 187 188 185 182 186 190 191 189 201 199 196 200 205 214 209 207 201 202 206 208 203 202 204 205 205 210 204 212 222 223 228 219 228 234 248 246 232 229 227 227 260 216 226 252 216 220
212 212 237 259 262 245 283 278 305 312 152 257 17 216 252 250 241 273 206 219 236 223 211 219 216 229 229 225 229 234 240 238 231 235 221 210 210 207 199 201 201 201 198 199 198 187 191 192 198 192 190 189 194 189 182 194 194 193 190 195 194 205 222 216 216 210 203 201 203 205 204 202 202 207 205 204 208 214 218 221 225 219 219 221 229 241 234 234 213 222 213 220 252 219 231 236 198
206 208 130 219 235 151 258 269 0 357 122 260 162 204 269 284 277 252 251 220 231 224 217 232 219 220 218 218 212 217 223 228 229 223 218 213 209 208 205 206 204 199 199 201 199 195 193 196 196 193 193 194 192 193 194 196 191 185 191 168 188 183 197 205 209 215 211 214 217 207 207 200 201 206 206 206 209 214 216 218 216 212 225 214 217 234 217 212 212 223 214 217 215 253 223 257 214
238 177 167 209 171 233 156 215 120 325 15 91 91 4 304 274 268 285 263 236 254 256 237 250 252 243 250 266 255 227 214 210 221 227 227 210 210 213 206 205 195 198 201 200 197 196 196 197 195 192 192 195 196 191 192 178 153 155 157 115 121 202 344 176 196 230 211 210 216 203 214 199 202 207 207 207 208 218 221 222 216 222 214 216 214 222 219 222 222 220 201 201 196 213 252 244 272
253 220 192 211 204 185 253 126 110 33 303 308 199 319 292 281 261 237 252 11 234 238 220 236 239 241 238 243 237 235 244 234 215 211 208 204 205 211 216 206 199 205 205 204 199 199 198 198 194 193 193 194 195 193 184 169 178 174 169 178 193 197 211 198 208 211 200 207 214 191 193 197 201 209 209 209 210 218 223 216 212 207 217 220 212 228 233 231 252 244 216 210 214 217 231 263 278
213 256 187 215 191 162 138 139 96 130 180 288 15 192 265 329 289 248 263 262 251 271 231 246 246 244 229 234 236 230 227 234 245 260 256 219 214 207 211 206 205 206 212 201 197 200 202 199 196 193 193 195 193 185 178 174 179 186 189 196 199 200 207 224 200 170 192 209 158 174 187 187 191 188 194 194 198 204 213 213 208 213 228 237 239 233 235 244 253 236 216 205 226 220 179 246 250
225 245 131 129 119 142 176 158 167 194 253 312 47 131 205 291 284 257 269 276 265 282 263 252 247 238 228 231 231 233 231 223 217 223 221 215 209 201 204 207 203 208 206 187 197 198 197 198 192 195 194 190 189 177 178 184 187 192 194 200 198 199 204 201 187 191 165 151 148 144 111 87 76 109 150 128 170 172 184 195 194 222 285 302 310 333 359 0 53 38 28 291 307 261 237 241 275
220 204 158 162 168 180 158 143 148 146 129 262 313 269 259 256 267 306 297 296 289 254 247 247 242 239 238 237 235 233 229 222 213 217 216 208 207 212 216 209 210 201 174 189 197 198 196 192 190 187 194 190 190 179 182 192 193 190 193 191 196 201 172 169 154 112 133 138 113 74 89 89 80 75 91 100 94 99 101 94 80 80 87 72 60 77 80 55 42 6 343 330 301 276 232 245 260
254 123 86 77 73 68 112 104 104 28 104 252 233 192 201 281 273 331 337 240 269 259 247 245 238 232 226 228 236 238 241 242 237 235 234 230 223 220 218 240 203 212 212 206 205 189 193 185 188 188 198 193 189 185 186 191 192 181 185 184 182 163 135 101 113 121 121 122 111 105 108 94 96 80 71 83 85 83 92 94 99 96 99 115 101 71 58 58 54 70 60 49 25 13 352 348 326
121 111 85 51 44 38 33 70 103 72 269 252 236 280 163 289 264 219 195 221 201 245 291 276 268 272 252 236 230 224 224 222 214 211 222 225 264 229 206 200 216 222 221 205 204 199 195 193 191 195 200 192 190 191 185 191 189 184 183 176 170 160 156 147 128 113 116 108 118 116 111 116 86 100 91 74 71 72 90 95 96 86 80 80 79 81 78 72 46 42 47 60 58 48 23 28 3
142 120 126 83 358 12 26 339 38 163 264 262 256 208 170 192 290 279 242 272 234 214 239 261 282 269 253 245 234 223 204 198 187 163 159 133 112 81 95 166 181 197 178 201 209 202 194 198 191 197 198 194 192 192 187 187 180 181 175 169 170 167 159 159 155 156 156 144 144 139 141 96 65 66 50 66 47 54 92 70 64 59 57 77 90 94 80 74 69 55 44 44 40 39 35 29 21
95 107 127 138 226 42 237 3 236 223 205 240 346 158 357 249 230 253 270 265 267 219 219 237 250 278 268 258 236 213 200 185 180 188 178 183 177 177 181 194 190 192 197 199 203 198 197 188 190 192 201 190 190 181 185 173 168 172 167 170 169 164 162 157 154 147 158 146 146 138 128 114 77 57 36 64 35 49 68 65 57 58 52 37 60 65 56 67 69 67 63 55 47 43 37 35 33
128 149 149 126 117 142 199 264 266 315 285 269 232 287 267 244 279 245 247 255 251 222 233 239 243 254 247 223 222 221 219 201 196 194 199 200 206 215 215 204 206 215 220 214 209 200 198 190 190 190 194 178 171 167 166 160 165 161 160 158 156 155 153 150 152 145 154 140 142 137 131 125 102 115 96 85 89 87 76 84 87 77 71 61 56 69 61 55 86 98 82 67 68 57 42 38 34
221 122 150 171 144 152 198 194 202 213 201 280 274 92 233 134 242 233 236 267 303 269 259 258 253 255 239 229 222 243 229 230 220 204 204 210 220 213 217 224 229 230 232 234 228 222 197 197 185 187 168 169 158 155 145 146 146 144 142 143 144 144 143 137 132 134 136 125 121 110 106 113 111 116 110 112 71 78 79 76 77 73 59 57 55 58 58 59 59 66 60 72 70 60 48 49 39
190 168 78 125 209 147 173 203 164 178 170 55 218 209 187 179 255 270 251 268 281 312 317 344 272 298 246 201 204 211 227 242 240 229 240 248 237 224 221 218 220 219 226 233 229 214 201 203 185 182 165 154 145 138 139 139 136 133 133 133 134 126 117 113 107 99 96 114 123 118 113 108 110 104 84 86 63 83 87 85 75 75 69 67 63 65 63 63 62 70 62 63 56 39 77 66 57
202 115 199 212 128 103 91 56 129 106 44 256 177 321 290 300 316 284 333 311 269 319 298 325 270 265 267 229 229 234 231 221 222 222 222 235 246 240 228 221 224 229 225 220 220 206 192 168 156 143 137 136 138 136 130 127 126 119 118 119 123 123 124 123 122 113 108 97 102 103 109 102 97 105 109 94 93 80 85 88 81 72 70 72 69 60 65 69 71 72 73 65 52 13 63 62 66
98 162 219 165 131 112 139 210 351 63 196 259 91 207 284 48 262 314 334 302 277 281 253 254 285 275 240 232 228 224 220 221 223 228 230 214 204 190 196 227 207 195 199 204 208 194 170 163 156 145 144 138 137 130 127 128 124 118 116 110 107 116 119 117 115 113 111 105 97 100 103 106 111 113 107 103 94 86 78 78 87 77 70 66 68 63 65 67 78 73 81 79 76 67 57 26 23
149 193 185 132 231 247 280 107 229 179 246 263 297 263 271 182 232 335 274 235 253 253 239 249 250 241 235 240 247 252 256 246 227 214 199 188 177 182 174 173 183 233 211 180 159 149 144 145 150 145 142 137 134 125 118 111 113 113 114 115 116 110 106 101 100 109 111 112 113 113 111 116 107 102 102 99 92 88 88 79 83 81 77 78 72 72 76 72 80 79 58 68 38 67 77 43 333
39 69 123 100 114 179 146 202 176 135 243 72 292 70 228 206 222 202 247 229 232 250 241 230 231 222 216 224 230 223 217 213 209 203 199 193 195 192 180 168 160 162 149 155 142 134 138 139 128 120 114 117 118 120 121 115 112 114 110 101 94 102 104 110 117 118 112 111 119 116 116 107 112 105 99 97 97 98 95 93 84 89 80 73 71 57 66 75 70 73 69 48 20 50 40 18 335
21 115 193 242 0 221 113 41 132 173 174 185 202 298 275 252 215 194 225 237 234 210 225 234 238 226 217 219 216 212 208 205 203 193 186 185 184 186 188 186 135 86 86 118 139 143 143 134 134 142 137 133 124 123 119 119 116 113 113 111 112 109 107 109 106 107 108 110 110 110 111 125 111 96 106 97 97 98 98 99 94 83 89 87 82 66 56 78 69 60 42 51 28 36 20 341 345
184 168 195 177 131 118 164 249 45 98 133 237 140 248 265 269 183 202 220 239 260 213 212 239 250 239 223 223 220 204 205 210 190 186 174 174 185 182 152 91 80 102 108 116 123 127 134 139 143 139 131 132 131 130 127 126 119 119 116 116 113 110 113 110 108 107 109 114 118 119 129 111 100 104 101 105 103 105 101 101 101 102 94 85 77 75 55 67 57 37 19 27 29 25 4 323 333